Time,TemperatureF,DewpointF,PressureIn,WindDirection,WindDirectionDegrees,WindSpeedMPH,WindSpeedGustMPH,Humidity,HourlyPrecipIn,Conditions,Clouds,dailyrainin,SoftwareType,DateUTC
2013-02-02 00:02:00,32.0,24.0,30.22,West,269,6.0,-999.0,71,-99.99,,,-99.99,,2013-02-02 07:02:00,
2013-02-02 00:11:00,32.0,24.0,30.22,West,269,6.0,-999.0,71,-99.99,,,-99.99,,2013-02-02 07:11:00,
2013-02-02 00:21:00,32.0,24.0,30.22,West,269,3.0,-999.0,71,-99.99,,,-99.99,,2013-02-02 07:21:00,
2013-02-02 00:31:00,31.0,23.0,30.25,West,269,0.0,-999.0,73,-99.99,,,-99.99,,2013-02-02 07:31:00,
2013-02-02 00:41:00,31.0,23.0,30.25,West,269,0.0,-999.0,73,-99.99,,,-99.99,,2013-02-02 07:41:00,
2013-02-02 00:51:00,31.0,23.0,30.22,West,269,1.0,-999.0,73,-99.99,,,-99.99,,2013-02-02 07:51:00,
2013-02-02 01:01:00,30.0,23.0,30.24,West,269,0.0,-999.0,75,-99.99,,,-99.99,,2013-02-02 08:01:00,
2013-02-02 01:11:00,30.0,23.0,30.24,West,269,0.0,-999.0,75,-99.99,,,-99.99,,2013-02-02 08:11:00,
2013-02-02 01:21:00,29.0,22.0,30.24,West,269,1.0,-999.0,76,-99.99,,,-99.99,,2013-02-02 08:21:00,
2013-02-02 01:31:00,29.0,23.0,30.25,West,269,0.0,-999.0,79,-99.99,,,-99.99,,2013-02-02 08:31:00,
2013-02-02 01:41:00,29.0,23.0,30.25,West,269,0.0,-999.0,79,-99.99,,,-99.99,,2013-02-02 08:41:00,
2013-02-02 01:52:00,28.0,23.0,30.25,West,269,0.0,-999.0,80,-99.99,,,-99.99,,2013-02-02 08:52:00,
2013-02-02 02:01:00,28.0,23.0,30.25,West,269,0.0,-999.0,80,-99.99,,,-99.99,,2013-02-02 09:01:00,
2013-02-02 02:11:00,28.0,23.0,30.25,West,269,0.0,-999.0,80,-99.99,,,-99.99,,2013-02-02 09:11:00,
2013-02-02 02:22:00,27.0,22.0,30.25,West,269,0.0,-999.0,82,-99.99,,,-99.99,,2013-02-02 09:22:00,
2013-02-02 02:31:00,26.0,21.0,30.26,West,269,2.0,-999.0,80,-99.99,,,-99.99,,2013-02-02 09:31:00,
2013-02-02 02:41:00,26.0,21.0,30.26,West,269,2.0,-999.0,80,-99.99,,,-99.99,,2013-02-02 09:41:00,
2013-02-02 02:51:00,25.0,21.0,30.28,West,269,3.0,-999.0,83,-99.99,,,-99.99,,2013-02-02 09:51:00,
2013-02-02 03:01:00,25.0,21.0,30.28,West,269,2.0,-999.0,84,-99.99,,,-99.99,,2013-02-02 10:01:00,
2013-02-02 03:11:00,25.0,21.0,30.28,West,269,2.0,-999.0,84,-99.99,,,-99.99,,2013-02-02 10:11:00,
2013-02-02 03:21:00,25.0,21.0,30.28,West,269,1.0,-999.0,84,-99.99,,,-99.99,,2013-02-02 10:21:00,
2013-02-02 03:31:00,24.0,20.0,30.29,West,269,0.0,-999.0,84,-99.99,,,-99.99,,2013-02-02 10:31:00,
2013-02-02 03:41:00,24.0,20.0,30.29,West,269,0.0,-999.0,84,-99.99,,,-99.99,,2013-02-02 10:41:00,
2013-02-02 03:51:00,24.0,20.0,30.29,West,269,1.0,-999.0,85,-99.99,,,-99.99,,2013-02-02 10:51:00,
2013-02-02 04:01:00,24.0,20.0,30.29,West,269,0.0,-999.0,85,-99.99,,,-99.99,,2013-02-02 11:01:00,
2013-02-02 04:11:00,24.0,20.0,30.29,West,269,0.0,-999.0,85,-99.99,,,-99.99,,2013-02-02 11:11:00,
2013-02-02 04:21:00,25.0,21.0,30.29,West,269,0.0,-999.0,84,-99.99,,,-99.99,,2013-02-02 11:21:00,
2013-02-02 04:31:00,24.0,20.0,30.29,West,269,1.0,-999.0,84,-99.99,,,-99.99,,2013-02-02 11:31:00,
2013-02-02 04:41:00,24.0,20.0,30.29,West,269,1.0,-999.0,84,-99.99,,,-99.99,,2013-02-02 11:41:00,
2013-02-02 04:52:00,24.0,20.0,30.32,West,269,0.0,-999.0,83,-99.99,,,-99.99,,2013-02-02 11:52:00,
2013-02-02 05:01:00,24.0,20.0,30.32,West,269,0.0,-999.0,84,-99.99,,,-99.99,,2013-02-02 12:01:00,
2013-02-02 05:11:00,24.0,20.0,30.32,West,269,0.0,-999.0,84,-99.99,,,-99.99,,2013-02-02 12:11:00,
2013-02-02 05:22:00,24.0,20.0,30.32,West,269,0.0,-999.0,83,-99.99,,,-99.99,,2013-02-02 12:22:00,
2013-02-02 05:32:00,23.0,19.0,30.33,West,269,1.0,-999.0,84,-99.99,,,-99.99,,2013-02-02 12:32:00,
2013-02-02 05:42:00,23.0,19.0,30.33,West,269,1.0,-999.0,84,-99.99,,,-99.99,,2013-02-02 12:42:00,
2013-02-02 05:52:00,24.0,20.0,30.35,West,269,1.0,-999.0,84,-99.99,,,-99.99,,2013-02-02 12:52:00,
2013-02-02 06:02:00,24.0,20.0,30.35,West,269,1.0,-999.0,83,-99.99,,,-99.99,,2013-02-02 13:02:00,
2013-02-02 06:11:00,24.0,20.0,30.35,West,269,1.0,-999.0,83,-99.99,,,-99.99,,2013-02-02 13:11:00,
2013-02-02 06:21:00,24.0,19.0,30.36,West,269,2.0,-999.0,82,-99.99,,,-99.99,,2013-02-02 13:21:00,
2013-02-02 06:32:00,23.0,18.0,30.36,West,269,1.0,-999.0,82,-99.99,,,-99.99,,2013-02-02 13:32:00,
2013-02-02 06:42:00,23.0,18.0,30.36,West,269,1.0,-999.0,82,-99.99,,,-99.99,,2013-02-02 13:42:00,
2013-02-02 06:51:00,23.0,19.0,30.40,West,269,1.0,-999.0,83,-99.99,,,-99.99,,2013-02-02 13:51:00,
2013-02-02 07:02:00,23.0,19.0,30.40,West,269,1.0,-999.0,83,-99.99,,,-99.99,,2013-02-02 14:02:00,
2013-02-02 07:11:00,23.0,19.0,30.40,West,269,1.0,-999.0,83,-99.99,,,-99.99,,2013-02-02 14:11:00,
2013-02-02 07:22:00,23.0,19.0,30.40,West,269,1.0,-999.0,83,-99.99,,,-99.99,,2013-02-02 14:22:00,
2013-02-02 07:32:00,23.0,19.0,30.39,West,269,1.0,-999.0,83,-99.99,,,-99.99,,2013-02-02 14:32:00,
2013-02-02 07:42:00,23.0,19.0,30.39,West,269,1.0,-999.0,83,-99.99,,,-99.99,,2013-02-02 14:42:00,
2013-02-02 07:52:00,22.0,18.0,30.42,West,269,0.0,-999.0,83,-99.99,,,-99.99,,2013-02-02 14:52:00,
2013-02-02 08:02:00,23.0,19.0,30.42,West,269,3.0,-999.0,83,-99.99,,,-99.99,,2013-02-02 15:02:00,
2013-02-02 08:11:00,23.0,19.0,30.42,West,269,3.0,-999.0,83,-99.99,,,-99.99,,2013-02-02 15:11:00,
2013-02-02 08:21:00,24.0,19.0,30.41,West,269,3.0,-999.0,82,-99.99,,,-99.99,,2013-02-02 15:21:00,
2013-02-02 08:32:00,25.0,20.0,30.42,West,269,3.0,-999.0,81,-99.99,,,-99.99,,2013-02-02 15:32:00,
2013-02-02 08:42:00,25.0,20.0,30.42,West,269,3.0,-999.0,81,-99.99,,,-99.99,,2013-02-02 15:42:00,
2013-02-02 08:51:00,27.0,21.0,30.40,West,269,2.0,-999.0,78,-99.99,,,-99.99,,2013-02-02 15:51:00,
2013-02-02 09:02:00,29.0,22.0,30.38,West,269,2.0,-999.0,75,-99.99,,,-99.99,,2013-02-02 16:02:00,
2013-02-02 09:11:00,29.0,22.0,30.38,West,269,2.0,-999.0,75,-99.99,,,-99.99,,2013-02-02 16:11:00,
2013-02-02 09:22:00,30.0,22.0,30.38,West,269,2.0,-999.0,73,-99.99,,,-99.99,,2013-02-02 16:22:00,
2013-02-02 09:31:00,31.0,23.0,30.37,West,269,0.0,-999.0,72,-99.99,,,-99.99,,2013-02-02 16:31:00,
2013-02-02 09:42:00,31.0,23.0,30.37,West,269,0.0,-999.0,72,-99.99,,,-99.99,,2013-02-02 16:42:00,
2013-02-02 09:51:00,32.0,23.0,30.37,West,269,2.0,-999.0,70,-99.99,,,-99.99,,2013-02-02 16:51:00,
2013-02-02 10:02:00,34.0,25.0,30.37,West,269,0.0,-999.0,68,-99.99,,,-99.99,,2013-02-02 17:02:00,
2013-02-02 10:11:00,34.0,25.0,30.37,West,269,0.0,-999.0,68,-99.99,,,-99.99,,2013-02-02 17:11:00,
2013-02-02 10:21:00,36.0,24.0,30.36,West,269,0.0,-999.0,61,-99.99,,,-99.99,,2013-02-02 17:21:00,
2013-02-02 10:32:00,37.0,24.0,30.35,West,269,0.0,-999.0,60,-99.99,,,-99.99,,2013-02-02 17:32:00,
2013-02-02 10:41:00,37.0,24.0,30.35,West,269,0.0,-999.0,60,-99.99,,,-99.99,,2013-02-02 17:41:00,
2013-02-02 10:52:00,37.0,25.0,30.35,West,269,1.0,-999.0,61,-99.99,,,-99.99,,2013-02-02 17:52:00,
2013-02-02 11:02:00,37.0,24.0,30.35,West,269,1.0,-999.0,59,-99.99,,,-99.99,,2013-02-02 18:02:00,
2013-02-02 11:11:00,37.0,24.0,30.35,West,269,1.0,-999.0,59,-99.99,,,-99.99,,2013-02-02 18:11:00,
2013-02-02 11:21:00,38.0,24.0,30.35,West,269,1.0,-999.0,56,-99.99,,,-99.99,,2013-02-02 18:21:00,
2013-02-02 11:31:00,39.0,23.0,30.34,West,269,2.0,-999.0,53,-99.99,,,-99.99,,2013-02-02 18:31:00,
2013-02-02 11:41:00,39.0,23.0,30.34,West,269,2.0,-999.0,53,-99.99,,,-99.99,,2013-02-02 18:41:00,
2013-02-02 11:52:00,40.0,23.0,30.34,West,269,2.0,-999.0,50,-99.99,,,-99.99,,2013-02-02 18:52:00,
2013-02-02 12:01:00,41.0,23.0,30.34,West,268,1.0,-999.0,49,-99.99,,,-99.99,,2013-02-02 19:01:00,
2013-02-02 12:11:00,41.0,23.0,30.34,West,268,1.0,-999.0,49,-99.99,,,-99.99,,2013-02-02 19:11:00,
2013-02-02 12:21:00,41.0,24.0,30.32,West,268,2.0,-999.0,50,-99.99,,,-99.99,,2013-02-02 19:21:00,
2013-02-02 12:32:00,42.0,26.0,30.31,West,267,2.0,-999.0,52,-99.99,,,-99.99,,2013-02-02 19:32:00,
2013-02-02 12:41:00,42.0,26.0,30.31,West,267,2.0,-999.0,52,-99.99,,,-99.99,,2013-02-02 19:41:00,
2013-02-02 12:51:00,42.0,25.0,30.33,West,266,2.0,-999.0,51,-99.99,,,-99.99,,2013-02-02 19:51:00,
2013-02-02 13:01:00,41.0,25.0,30.33,WSW,243,3.0,-999.0,52,-99.99,,,-99.99,,2013-02-02 20:01:00,
2013-02-02 13:11:00,41.0,25.0,30.33,WSW,243,3.0,-999.0,52,-99.99,,,-99.99,,2013-02-02 20:11:00,
2013-02-02 13:21:00,42.0,26.0,30.33,SW,234,3.0,-999.0,52,-99.99,,,-99.99,,2013-02-02 20:21:00,
2013-02-02 13:32:00,42.0,26.0,30.33,SW,234,3.0,-999.0,52,-99.99,,,-99.99,,2013-02-02 20:32:00,
2013-02-02 13:41:00,42.0,26.0,30.33,SW,234,3.0,-999.0,52,-99.99,,,-99.99,,2013-02-02 20:41:00,
2013-02-02 13:52:00,43.0,24.0,30.32,SW,234,1.0,-999.0,47,-99.99,,,-99.99,,2013-02-02 20:52:00,
2013-02-02 14:02:00,43.0,24.0,30.32,SW,234,1.0,-999.0,47,-99.99,,,-99.99,,2013-02-02 21:02:00,
2013-02-02 14:11:00,43.0,24.0,30.32,SW,234,1.0,-999.0,47,-99.99,,,-99.99,,2013-02-02 21:11:00,
2013-02-02 14:21:00,43.0,25.0,30.32,SW,233,2.0,-999.0,48,-99.99,,,-99.99,,2013-02-02 21:21:00,
2013-02-02 14:32:00,44.0,25.0,30.30,SW,233,1.0,-999.0,47,-99.99,,,-99.99,,2013-02-02 21:32:00,
2013-02-02 14:42:00,44.0,25.0,30.30,SW,233,1.0,-999.0,47,-99.99,,,-99.99,,2013-02-02 21:42:00,
2013-02-02 14:51:00,44.0,26.0,30.32,SW,233,2.0,-999.0,48,-99.99,,,-99.99,,2013-02-02 21:51:00,
2013-02-02 15:02:00,44.0,25.0,30.31,SW,233,2.0,-999.0,47,-99.99,,,-99.99,,2013-02-02 22:02:00,
2013-02-02 15:11:00,44.0,25.0,30.31,SW,233,2.0,-999.0,47,-99.99,,,-99.99,,2013-02-02 22:11:00,
2013-02-02 15:21:00,43.0,23.0,30.31,SW,233,1.0,-999.0,44,-99.99,,,-99.99,,2013-02-02 22:21:00,
2013-02-02 15:32:00,44.0,22.0,30.31,SW,233,0.0,-999.0,41,-99.99,,,-99.99,,2013-02-02 22:32:00,
2013-02-02 15:41:00,44.0,22.0,30.31,SW,233,0.0,-999.0,41,-99.99,,,-99.99,,2013-02-02 22:41:00,
2013-02-02 15:51:00,45.0,23.0,30.30,SW,233,1.0,-999.0,42,-99.99,,,-99.99,,2013-02-02 22:51:00,
2013-02-02 16:01:00,45.0,24.0,30.30,SW,233,0.0,-999.0,43,-99.99,,,-99.99,,2013-02-02 23:01:00,
2013-02-02 16:11:00,45.0,24.0,30.30,SW,233,0.0,-999.0,43,-99.99,,,-99.99,,2013-02-02 23:11:00,
2013-02-02 16:21:00,45.0,24.0,30.30,SW,233,0.0,-999.0,44,-99.99,,,-99.99,,2013-02-02 23:21:00,
2013-02-02 16:32:00,44.0,23.0,30.30,SW,233,0.0,-999.0,43,-99.99,,,-99.99,,2013-02-02 23:32:00,
2013-02-02 16:41:00,44.0,23.0,30.30,SW,233,0.0,-999.0,43,-99.99,,,-99.99,,2013-02-02 23:41:00,
2013-02-02 16:52:00,44.0,23.0,30.31,SW,233,0.0,-999.0,43,-99.99,,,-99.99,,2013-02-02 23:52:00,
2013-02-02 17:01:00,44.0,25.0,30.31,SW,233,0.0,-999.0,46,-99.99,,,-99.99,,2013-02-03 00:01:00,
2013-02-02 17:11:00,44.0,25.0,30.31,SW,233,0.0,-999.0,46,-99.99,,,-99.99,,2013-02-03 00:11:00,
2013-02-02 17:21:00,43.0,24.0,30.31,SW,233,0.0,-999.0,47,-99.99,,,-99.99,,2013-02-03 00:21:00,
2013-02-02 17:31:00,42.0,24.0,30.31,SW,233,0.0,-999.0,49,-99.99,,,-99.99,,2013-02-03 00:31:00,
2013-02-02 17:41:00,42.0,24.0,30.31,SW,233,0.0,-999.0,49,-99.99,,,-99.99,,2013-02-03 00:41:00,
2013-02-02 17:52:00,41.0,24.0,30.32,SW,233,0.0,-999.0,51,-99.99,,,-99.99,,2013-02-03 00:52:00,
2013-02-02 18:01:00,40.0,25.0,30.33,SW,233,0.0,-999.0,55,-99.99,,,-99.99,,2013-02-03 01:01:00,
2013-02-02 18:11:00,40.0,25.0,30.33,SW,233,0.0,-999.0,55,-99.99,,,-99.99,,2013-02-03 01:11:00,
2013-02-02 18:21:00,38.0,24.0,30.33,SW,233,0.0,-999.0,57,-99.99,,,-99.99,,2013-02-03 01:21:00,
2013-02-02 18:32:00,37.0,25.0,30.34,SW,233,0.0,-999.0,61,-99.99,,,-99.99,,2013-02-03 01:32:00,
2013-02-02 18:41:00,37.0,25.0,30.34,SW,233,0.0,-999.0,61,-99.99,,,-99.99,,2013-02-03 01:41:00,
2013-02-02 18:52:00,35.0,25.0,30.36,SW,233,0.0,-999.0,66,-99.99,,,-99.99,,2013-02-03 01:52:00,
2013-02-02 19:01:00,33.0,25.0,30.37,SW,233,1.0,-999.0,72,-99.99,,,-99.99,,2013-02-03 02:01:00,
2013-02-02 19:11:00,33.0,25.0,30.37,SW,233,1.0,-999.0,72,-99.99,,,-99.99,,2013-02-03 02:11:00,
2013-02-02 19:21:00,31.0,24.0,30.38,SW,233,2.0,-999.0,75,-99.99,,,-99.99,,2013-02-03 02:21:00,
2013-02-02 19:31:00,31.0,25.0,30.40,SW,233,1.0,-999.0,77,-99.99,,,-99.99,,2013-02-03 02:31:00,
2013-02-02 19:41:00,31.0,25.0,30.40,SW,233,1.0,-999.0,77,-99.99,,,-99.99,,2013-02-03 02:41:00,
2013-02-02 19:52:00,30.0,24.0,30.38,SW,233,0.0,-999.0,79,-99.99,,,-99.99,,2013-02-03 02:52:00,
2013-02-02 20:01:00,29.0,24.0,30.40,SW,233,2.0,-999.0,81,-99.99,,,-99.99,,2013-02-03 03:01:00,
2013-02-02 20:21:00,29.0,24.0,30.41,SW,233,1.0,-999.0,81,-99.99,,,-99.99,,2013-02-03 03:21:00,
2013-02-02 20:31:00,29.0,24.0,30.42,SW,233,0.0,-999.0,82,-99.99,,,-99.99,,2013-02-03 03:31:00,
2013-02-02 20:41:00,29.0,24.0,30.42,SW,233,0.0,-999.0,82,-99.99,,,-99.99,,2013-02-03 03:41:00,
2013-02-02 20:52:00,29.0,25.0,30.37,SW,233,1.0,-999.0,83,-99.99,,,-99.99,,2013-02-03 03:52:00,
2013-02-02 21:01:00,29.0,25.0,30.37,SW,233,1.0,-999.0,84,-99.99,,,-99.99,,2013-02-03 04:01:00,
2013-02-02 21:11:00,29.0,25.0,30.37,SW,233,1.0,-999.0,84,-99.99,,,-99.99,,2013-02-03 04:11:00,
2013-02-02 21:21:00,29.0,25.0,30.37,SW,233,1.0,-999.0,84,-99.99,,,-99.99,,2013-02-03 04:21:00,
2013-02-02 21:31:00,28.0,24.0,30.37,SW,233,1.0,-999.0,85,-99.99,,,-99.99,,2013-02-03 04:31:00,
2013-02-02 21:42:00,28.0,24.0,30.37,SW,233,1.0,-999.0,85,-99.99,,,-99.99,,2013-02-03 04:42:00,
2013-02-02 21:52:00,28.0,24.0,30.35,SW,233,2.0,-999.0,86,-99.99,,,-99.99,,2013-02-03 04:52:00,
2013-02-02 22:03:00,28.0,24.0,30.35,SW,233,1.0,-999.0,86,-99.99,,,-99.99,,2013-02-03 05:03:00,
2013-02-02 22:11:00,28.0,24.0,30.35,SW,233,1.0,-999.0,86,-99.99,,,-99.99,,2013-02-03 05:11:00,
2013-02-02 22:22:00,28.0,25.0,30.34,SW,233,2.0,-999.0,87,-99.99,,,-99.99,,2013-02-03 05:22:00,
2013-02-02 22:31:00,28.0,25.0,30.34,SW,233,2.0,-999.0,87,-99.99,,,-99.99,,2013-02-03 05:31:00,
2013-02-02 22:41:00,28.0,25.0,30.34,SW,233,2.0,-999.0,87,-99.99,,,-99.99,,2013-02-03 05:41:00,
2013-02-02 22:52:00,28.0,25.0,30.34,SW,233,2.0,-999.0,87,-99.99,,,-99.99,,2013-02-03 05:52:00,
2013-02-02 23:02:00,27.0,24.0,30.32,SW,233,0.0,-999.0,87,-99.99,,,-99.99,,2013-02-03 06:02:00,
2013-02-02 23:11:00,27.0,24.0,30.32,SW,233,0.0,-999.0,87,-99.99,,,-99.99,,2013-02-03 06:11:00,
2013-02-02 23:21:00,28.0,25.0,30.32,SW,233,1.0,-999.0,87,-99.99,,,-99.99,,2013-02-03 06:21:00,
2013-02-02 23:31:00,28.0,25.0,30.31,SW,233,2.0,-999.0,87,-99.99,,,-99.99,,2013-02-03 06:31:00,
2013-02-02 23:41:00,28.0,25.0,30.31,SW,233,2.0,-999.0,87,-99.99,,,-99.99,,2013-02-03 06:41:00,
2013-02-02 23:52:00,28.0,25.0,30.29,SW,233,2.0,-999.0,87,-99.99,,,-99.99,,2013-02-03 06:52:00,